GW7949 Weather Reports


Display with metric or nautical units.
time (UTC)temp
F
wind
direction
speed
MPH
gust
MPH
rain 1hr
in
rain 24hr
in
rain mn
in
humidity
%
barometer
mb
20260905232519 75 119 2.0 3.0 0.00 0.00 0.00 73
20260905231520 76 42 2.0 4.0 0.00 0.00 0.00 69
20260905230517 76 57 2.0 4.0 0.00 0.00 0.00 69
20260905225519 76 47 3.0 6.0 0.00 0.00 0.00 67
20260905224521 77 48 4.0 6.0 0.00 0.00 0.00 66
20260905223520 77 50 5.0 8.0 0.00 0.00 0.00 65
20260905222517 77 35 5.0 9.0 0.00 0.00 0.00 65
20260905220517 77 30 6.0 11.0 0.00 0.00 0.00 65
20260905215520 76 48 6.0 9.0 0.00 0.00 0.00 66
20260905214518 76 50 5.0 8.0 0.00 0.00 0.00 68
20260905213518 77 25 7.0 11.0 0.00 0.00 0.00 66
20260905212518 78 42 5.0 11.0 0.00 0.00 0.00 66
20260905211518 78 13 3.0 6.0 0.00 0.00 0.00 67
20260905210518 77 48 3.0 7.0 0.00 0.00 0.00 68
20260905205518 76 27 3.0 5.0 0.00 0.00 0.00 70
20260905204520 76 5 6.0 10.0 0.00 0.00 0.00 71
20260905203519 76 20 7.0 9.0 0.00 0.00 0.00 70
20260905202520 76 22 7.0 11.0 0.00 0.00 0.00 70
20260905201516 76 6 6.0 9.0 0.00 0.00 0.00 73
20260905195520 76 19 8.0 13.0 0.00 0.00 0.00 70
20260905194520 76 14 6.0 10.0 0.00 0.00 0.00 70
20260905193517 76 350 5.0 9.0 0.00 0.00 0.00 72
20260905192518 76 22 8.0 10.0 0.00 0.00 0.00 70
20260905190517 76 8 6.0 10.0 0.00 0.00 0.00 72
20260905185521 76 9 6.0 10.0 0.00 0.00 0.00 72
20260905183519 75 20 7.0 13.0 0.00 0.00 0.00 71
20260905182518 75 3 7.0 12.0 0.00 0.00 0.00 73
20260905181518 74 14 6.0 10.0 0.00 0.00 0.00 72
20260905180518 75 344 8.0 10.0 0.00 0.00 0.00 73
20260905175519 0 332 9.0 11.0 0.00 0.00 0.00
20260905175019 76 1 6.0 12.0 0.00 0.00 0.00 71